Kerkyra, Greece

3:16 AM EEST on April 21, 2018 (GMT +0300)
Ioannis Kapodistrias

Weather History for LGKR - September, 2013

Change the Weather History Date:

Sunday, September 8, 2013

  Actual Average Record
Temperature  
Mean Temperature 79 °F -  
Max Temperature 90 °F 80 °F 90 °F (2013)
Min Temperature 68 °F 60 °F 51 °F (2007)
Cooling Degree Days 14    
Growing Degree Days 29 (Base 50)    
Moisture  
Dew Point 63 °F    
Average Humidity 64    
Maximum Humidity 94    
Minimum Humidity 27    
Precipitation  
Precipitation 0.00 in 0.12 in - ()
Sea Level Pressure  
Sea Level Pressure 30.04 in    
Wind  
Wind Speed 2 mph ()    
Max Wind Speed 9 mph    
Max Gust Speed -    
Visibility 6.9 miles    
Events      
Averages and records for this station are not official NWS values.
T = Trace of Precipitation, MM = Missing Value Source: Averaged Metar Reports

Daily Weather History Graph

Daily Weather History Graph

Search for Another Location

Airport or City:

Astronomy

Sep. 08, 2013 Rise Set
Actual Time 7:14 AM EEST 8:00 PM EEST
Civil Twilight 6:47 AM EEST 8:27 PM EEST
Nautical Twilight 6:15 AM EEST 8:59 PM EEST
Astronomical Twilight 5:41 AM EEST 9:32 PM EEST
Moon 10:12 AM EEST (9/8) 9:25 PM EEST (9/8)
Length of Visible Light 13h 39m
Length of Day
12h 45m
Waxing Crescent, 9% of the Moon is Illuminated
Sep 8
Waxing Crescent
Sep 12
First Quarter
Sep 19
Full
Sep 27
Last Quarter
Oct 5
New

Hourly Weather History & Observations

Time (EEST) Temp. Heat Index Dew Point Humidity Pressure Visibility Wind Dir Wind Speed Gust Speed Precip Events Conditions
12:20 AM 73.4 °F - 62.6 °F 69% 30.01 in - Calm Calm - N/A   Clear
12:50 AM 71.6 °F - 64.4 °F 78% 30.01 in - Calm Calm - N/A   Clear
1:20 AM 71.6 °F - 64.4 °F 78% 30.01 in - Calm Calm - N/A   Clear
1:50 AM 71.6 °F - 64.4 °F 78% 30.01 in - Calm Calm - N/A   Clear
2:20 AM 71.6 °F - 64.4 °F 78% 30.01 in - Calm Calm - N/A   Clear
2:50 AM 69.8 °F - 64.4 °F 83% 30.01 in - Calm Calm - N/A   Clear
3:00 AM 70 °F - 64 °F 77% 30.03 in 6 mi Calm Calm - -  
3:20 AM 69.8 °F - 64.4 °F 83% 30.01 in - Calm Calm - N/A   Clear
3:50 AM 69.8 °F - 64.4 °F 83% 30.01 in - Calm Calm - N/A   Clear
4:20 AM 69.8 °F - 64.4 °F 83% 30.01 in - Calm Calm - N/A   Clear
4:50 AM 68.0 °F - 64.4 °F 88% 30.01 in - Calm Calm - N/A   Clear
5:20 AM 68.0 °F - 64.4 °F 88% 30.01 in - Calm Calm - N/A   Clear
5:50 AM 68.0 °F - 66.2 °F 94% 30.04 in - Calm Calm - N/A   Clear
6:20 AM 68.0 °F - 66.2 °F 94% 30.04 in - Calm Calm - N/A   Clear
6:50 AM 68.0 °F - 64.4 °F 88% 30.04 in - Calm Calm - N/A   Clear
7:20 AM 68.0 °F - 66.2 °F 94% 30.04 in - Calm Calm - N/A   Clear
7:50 AM 68.0 °F - 64.4 °F 88% 30.04 in - Calm Calm - N/A   Clear
8:20 AM 68.0 °F - 64.4 °F 88% 30.04 in - Calm Calm - N/A   Clear
8:50 AM 71.6 °F - 66.2 °F 83% 30.06 in - Calm Calm - N/A   Clear
9:00 AM 71 °F - 66 °F 81% 30.07 in 12 mi Calm Calm - -  
9:20 AM 71.6 °F - 66.2 °F 83% 30.06 in - Calm Calm - N/A   Clear
9:50 AM 75.2 °F - 68.0 °F 78% 30.06 in 6.2 mi Calm Calm - N/A   Partly Cloudy
10:20 AM 78.8 °F - 68.0 °F 69% 30.06 in 6.2 mi NE 2.3 mph - N/A   Partly Cloudy
10:50 AM 80.6 °F 83.2 °F 68.0 °F 65% 30.06 in - ENE 4.6 mph - N/A   Clear
11:20 AM 82.4 °F 85.4 °F 68.0 °F 62% 30.09 in - East 4.6 mph - N/A   Clear
11:50 AM 82.4 °F 85.4 °F 68.0 °F 62% 30.06 in 6.2 mi SE 3.5 mph - N/A   Partly Cloudy
12:20 PM 84.2 °F 87.3 °F 68.0 °F 58% 30.06 in 6.2 mi SSE 3.5 mph - N/A   Partly Cloudy
12:50 PM 86.0 °F 86.1 °F 60.8 °F 43% 30.06 in 6.2 mi East 3.5 mph - N/A   Partly Cloudy
1:20 PM 87.8 °F 87.6 °F 60.8 °F 40% 30.06 in 6.2 mi South 5.8 mph - N/A   Partly Cloudy
1:50 PM 87.8 °F 87.1 °F 59.0 °F 38% 30.06 in 6.2 mi SSW 4.6 mph - N/A   Partly Cloudy
2:20 PM 87.8 °F 87.1 °F 59.0 °F 38% 30.04 in 6.2 mi South 5.8 mph - N/A   Partly Cloudy
2:50 PM 87.8 °F 87.1 °F 59.0 °F 38% 30.04 in 6.2 mi ESE 4.6 mph - N/A   Partly Cloudy
3:00 PM 88 °F - 58 °F 27% 30.06 in 12 mi ESE 4.6 mph - -   Scattered Clouds
3:20 PM 89.6 °F 88.9 °F 59.0 °F 36% 30.04 in 6.2 mi SE 8.1 mph - N/A   Partly Cloudy
3:50 PM 89.6 °F 88.9 °F 59.0 °F 36% 30.04 in 6.2 mi SSW 4.6 mph - N/A   Partly Cloudy
4:20 PM 89.6 °F 88.9 °F 59.0 °F 36% 30.04 in 6.2 mi West 6.9 mph - N/A   Partly Cloudy
4:50 PM 87.8 °F 89.4 °F 64.4 °F 46% 30.04 in 6.2 mi NNW 6.9 mph - N/A   Partly Cloudy
5:20 PM 87.8 °F 89.4 °F 64.4 °F 46% 30.04 in 6.2 mi NNW 6.9 mph - N/A   Partly Cloudy
5:50 PM 89.6 °F 88.1 °F 57.2 °F 33% 30.04 in 6.2 mi NW 5.8 mph - N/A   Partly Cloudy
6:20 PM 89.6 °F 88.1 °F 57.2 °F 33% 30.04 in 6.2 mi NW 5.8 mph - N/A   Partly Cloudy
6:50 PM 86.0 °F 84.9 °F 57.2 °F 37% 30.04 in 6.2 mi NW 8.1 mph - N/A   Partly Cloudy
7:20 PM 84.2 °F 83.5 °F 57.2 °F 40% 30.04 in 6.2 mi WNW 9.2 mph - N/A   Partly Cloudy
7:50 PM 80.6 °F 80.8 °F 57.2 °F 45% 30.01 in 6.2 mi WNW 5.8 mph - N/A   Partly Cloudy
8:20 PM 78.8 °F - 57.2 °F 47% 30.01 in 6.2 mi West 4.6 mph - N/A   Partly Cloudy
8:50 PM 78.8 °F - 64.4 °F 61% 30.01 in - West 4.6 mph - N/A   Clear
9:00 PM 80 °F - 64 °F 48% 30.03 in 12 mi West 4.6 mph - -   Clear
9:20 PM 78.8 °F - 64.4 °F 61% 30.01 in - West 4.6 mph - N/A   Clear
9:50 PM 77.0 °F - 64.4 °F 65% 30.04 in - Calm Calm - N/A   Clear
10:20 PM 77.0 °F - 64.4 °F 65% 30.04 in - Calm Calm - N/A   Clear
10:50 PM 75.2 °F - 66.2 °F 73% 30.04 in - South 2.3 mph - N/A   Clear
11:20 PM 75.2 °F - 66.2 °F 73% 30.04 in - SSE 3.5 mph - N/A   Clear
11:50 PM 73.4 °F - 64.4 °F 73% 30.04 in - Calm Calm - N/A   Clear